| time (UTC) | temp F | wind direction | speed knots | gust knots | rain 1hr in | rain 24hr in | rain mn in | humidity % | barometer mb |
| 20260508025018 | 51 | 337 | 2.6 | 4.3 | 0.00 | 0.00 | 0.00 | 73 | 1013.1 |
| 20260508024018 | 51 | 337 | 3.5 | 4.3 | 0.00 | 0.00 | 0.00 | 73 | 1012.9 |
| 20260508023023 | 51 | 337 | 3.5 | 4.3 | 0.00 | 0.00 | 0.00 | 74 | 1012.9 |
| 20260508022018 | 51 | 337 | 3.5 | 4.3 | 0.00 | 0.00 | 0.00 | 74 | 1013.0 |
| 20260508021018 | 51 | 337 | 3.5 | 4.3 | 0.00 | 0.00 | 0.00 | 74 | 1013.0 |
| 20260508015018 | 51 | 337 | 3.5 | 4.3 | 0.00 | 0.00 | 0.00 | 76 | 1013.1 |
| 20260508014017 | 51 | 347 | 3.5 | 4.3 | 0.00 | 0.00 | 0.00 | 76 | 1013.2 |
| 20260508013018 | 51 | 352 | 3.5 | 4.3 | 0.00 | 0.00 | 0.00 | 77 | 1013.3 |
| 20260508011022 | 51 | 339 | 2.6 | 3.5 | 0.00 | 0.00 | 0.00 | 79 | 1013.7 |
| 20260508010019 | 51 | 342 | 3.5 | 5.2 | 0.00 | 0.00 | 0.00 | 80 | 1013.8 |
| 20260508005018 | 52 | 339 | 2.6 | 4.3 | 0.00 | 0.00 | 0.00 | 82 | 1014.0 |
| 20260508004019 | 52 | 342 | 3.5 | 5.2 | 0.00 | 0.00 | 0.00 | 83 | 1014.0 |
| 20260508003018 | 52 | 338 | 2.6 | 4.3 | 0.00 | 0.00 | 0.00 | 84 | 1014.2 |
| 20260508002018 | 53 | 345 | 2.6 | 3.5 | 0.00 | 0.00 | 0.00 | 84 | 1014.0 |
| 20260508001017 | 53 | 345 | 2.6 | 3.5 | 0.00 | 0.00 | 0.00 | 84 | 1014.1 |
| 20260508000019 | 54 | 357 | 2.6 | 4.3 | 0.00 | 0.00 | 0.00 | 83 | 1014.2 |
| 20260507235017 | 55 | 41 | 1.7 | 3.5 | 0.00 | 0.00 | 0.00 | 83 | 1014.3 |
| 20260507234018 | 55 | 41 | 1.7 | 3.5 | 0.00 | 0.00 | 0.00 | 83 | 1014.3 |
| 20260507233020 | 56 | 40 | 1.7 | 3.5 | 0.00 | 0.00 | 0.00 | 82 | 1014.4 |
| 20260507232018 | 56 | 40 | 0.9 | 3.5 | 0.00 | 0.00 | 0.00 | 82 | 1014.4 |
| 20260507231017 | 56 | 41 | 1.7 | 3.5 | 0.00 | 0.00 | 0.00 | 82 | 1014.6 |
| 20260507225017 | 57 | 50 | 2.6 | 4.3 | 0.00 | 0.00 | 0.00 | 82 | 1014.6 |
| 20260507224017 | 57 | 51 | 1.7 | 3.5 | 0.00 | 0.00 | 0.00 | 82 | 1014.8 |
| 20260507223018 | 57 | 51 | 1.7 | 3.5 | 0.00 | 0.00 | 0.00 | 82 | 1014.7 |
| 20260507222020 | 57 | 38 | 1.7 | 3.5 | 0.00 | 0.00 | 0.00 | 82 | 1014.7 |
| 20260507221017 | 57 | 36 | 2.6 | 4.3 | 0.00 | 0.00 | 0.00 | 82 | 1014.7 |
| 20260507220020 | 57 | 42 | 2.6 | 4.3 | 0.00 | 0.00 | 0.00 | 82 | 1014.7 |
| 20260507215018 | 57 | 42 | 2.6 | 4.3 | 0.00 | 0.00 | 0.00 | 83 | 1014.8 |
| 20260507214017 | 56 | 28 | 1.7 | 3.5 | 0.00 | 0.00 | 0.00 | 83 | 1014.8 |
| 20260507213017 | 56 | 357 | 1.7 | 2.6 | 0.00 | 0.00 | 0.00 | 83 | 1014.9 |
| 20260507212018 | 56 | 357 | 1.7 | 2.6 | 0.00 | 0.00 | 0.00 | 82 | 1014.8 |
| 20260507211018 | 56 | 357 | 0.0 | 1.7 | 0.00 | 0.00 | 0.00 | 82 | 1014.8 |
| 20260507210019 | 56 | 6 | 1.7 | 3.5 | 0.00 | 0.00 | 0.00 | 82 | 1014.8 |
| 20260507205017 | 57 | 123 | 0.0 | 2.6 | 0.00 | 0.00 | 0.00 | 81 | 1014.6 |
| 20260507203017 | 58 | 123 | 0.9 | 2.6 | 0.00 | 0.00 | 0.00 | 81 | 1014.4 |
| 20260507202017 | 58 | 123 | 0.9 | 2.6 | 0.00 | 0.00 | 0.00 | 81 | 1014.4 |
| 20260507200021 | 58 | 123 | 0.0 | 1.7 | 0.00 | 0.00 | 0.00 | 81 | 1014.3 |
| 20260507195018 | 58 | 0 | 0.0 | 0.0 | 0.00 | 0.00 | 0.00 | 81 | 1014.2 |
| 20260507194017 | 58 | 0 | 0.0 | 0.0 | 0.00 | 0.00 | 0.00 | 80 | 1013.9 |
| 20260507193017 | 58 | 123 | 0.9 | 1.7 | 0.00 | 0.00 | 0.00 | 80 | 1013.7 |
| 20260507191017 | 58 | 123 | 0.0 | 0.9 | 0.00 | 0.00 | 0.00 | 79 | 1013.3 |
| 20260507185018 | 59 | 123 | 0.9 | 2.6 | 0.00 | 0.00 | 0.00 | 79 | 1013.3 |
| 20260507183017 | 59 | 123 | 0.9 | 2.6 | 0.00 | 0.00 | 0.00 | 78 | 1013.3 |
| 20260507182016 | 60 | 160 | 3.5 | 6.1 | 0.00 | 0.00 | 0.00 | 78 | 1013.2 |
| 20260507181017 | 60 | 166 | 4.3 | 7.8 | 0.00 | 0.00 | 0.00 | 78 | 1013.1 |
| 20260507180018 | 60 | 164 | 4.3 | 7.8 | 0.00 | 0.00 | 0.00 | 77 | 1013.0 |
| 20260507174017 | 60 | 157 | 5.2 | 9.6 | 0.00 | 0.00 | 0.00 | 76 | 1012.9 |
| 20260507173017 | 61 | 167 | 5.2 | 8.7 | 0.00 | 0.00 | 0.00 | 76 | 1012.8 |
| 20260507172017 | 61 | 156 | 5.2 | 9.6 | 0.00 | 0.00 | 0.00 | 76 | 1012.8 |
| 20260507171017 | 61 | 155 | 4.3 | 9.6 | 0.00 | 0.00 | 0.00 | 76 | 1012.6 |
| 20260507170018 | 61 | 159 | 4.3 | 9.6 | 0.00 | 0.00 | 0.00 | 75 | 1012.4 |
| 20260507165017 | 62 | 136 | 3.5 | 7.0 | 0.00 | 0.00 | 0.00 | 75 | 1012.5 |
| 20260507163017 | 61 | 144 | 4.3 | 8.7 | 0.00 | 0.00 | 0.00 | 75 | 1012.5 |
| 20260507160019 | 62 | 153 | 4.3 | 7.8 | 0.00 | 0.00 | 0.00 | 75 | 1012.2 |
| 20260507154016 | 62 | 146 | 6.1 | 11.3 | 0.00 | 0.00 | 0.00 | 75 | 1012.3 |
| 20260507153016 | 62 | 162 | 7.8 | 13.0 | 0.00 | 0.00 | 0.00 | 75 | 1012.5 |
| 20260507151019 | 63 | 159 | 5.2 | 10.4 | 0.00 | 0.00 | 0.00 | 72 | 1012.6 |
| 20260507145019 | 62 | 158 | 7.0 | 13.0 | 0.00 | 0.00 | 0.00 | 73 | 1012.7 |
| 20260507144016 | 62 | 153 | 8.7 | 14.8 | 0.00 | 0.00 | 0.00 | 73 | 1012.8 |
| 20260507143016 | 63 | 152 | 7.0 | 13.9 | 0.00 | 0.00 | 0.00 | 74 | 1012.8 |
| 20260507142017 | 63 | 155 | 7.0 | 13.9 | 0.00 | 0.00 | 0.00 | 73 | 1012.8 |
| 20260507141017 | 62 | 146 | 7.0 | 12.2 | 0.00 | 0.00 | 0.00 | 74 | 1012.9 |
| 20260507140018 | 63 | 149 | 7.0 | 13.0 | 0.00 | 0.00 | 0.00 | 72 | 1013.2 |
| 20260507135016 | 64 | 152 | 7.0 | 13.0 | 0.00 | 0.00 | 0.00 | 70 | 1013.1 |
| 20260507134016 | 63 | 165 | 7.8 | 13.9 | 0.00 | 0.00 | 0.00 | 72 | 1013.3 |
| 20260507133016 | 62 | 160 | 8.7 | 15.6 | 0.00 | 0.00 | 0.00 | 74 | 1013.5 |
| 20260507132018 | 62 | 153 | 7.8 | 13.0 | 0.00 | 0.00 | 0.00 | 73 | 1013.5 |
| 20260507130019 | 62 | 155 | 7.8 | 13.0 | 0.00 | 0.00 | 0.00 | 72 | 1013.7 |
| 20260507125019 | 63 | 146 | 7.0 | 13.9 | 0.00 | 0.00 | 0.00 | 73 | 1013.8 |
| 20260507124016 | 62 | 146 | 7.8 | 14.8 | 0.00 | 0.00 | 0.00 | 72 | 1013.9 |
| 20260507123018 | 62 | 158 | 8.7 | 15.6 | 0.00 | 0.00 | 0.00 | 72 | 1013.9 |
| 20260507122016 | 62 | 148 | 8.7 | 15.6 | 0.00 | 0.00 | 0.00 | 72 | 1014.1 |
| 20260507121015 | 62 | 151 | 8.7 | 13.9 | 0.00 | 0.00 | 0.00 | 72 | 1014.2 |
| 20260507120017 | 62 | 152 | 6.1 | 11.3 | 0.00 | 0.00 | 0.00 | 72 | 1014.3 |
| 20260507115016 | 62 | 162 | 8.7 | 15.6 | 0.00 | 0.00 | 0.00 | 72 | 1014.2 |
| 20260507112016 | 62 | 149 | 6.1 | 12.2 | 0.00 | 0.00 | 0.00 | 71 | 1014.4 |
| 20260507110017 | 61 | 154 | 6.1 | 11.3 | 0.00 | 0.00 | 0.00 | 74 | 1014.6 |
| 20260507105016 | 61 | 152 | 7.0 | 13.0 | 0.00 | 0.00 | 0.00 | 74 | 1014.6 |
| 20260507104016 | 61 | 155 | 8.7 | 13.0 | 0.00 | 0.00 | 0.00 | 74 | 1014.8 |
| 20260507103019 | 61 | 158 | 7.8 | 13.0 | 0.00 | 0.00 | 0.00 | 76 | 1014.7 |
| 20260507100021 | 62 | 149 | 5.2 | 11.3 | 0.00 | 0.00 | 0.00 | 73 | 1014.7 |
| 20260507094014 | 62 | 149 | 5.2 | 9.6 | 0.00 | 0.00 | 0.00 | 73 | 1014.9 |
| 20260507093016 | 62 | 136 | 4.3 | 10.4 | 0.00 | 0.00 | 0.00 | 73 | 1014.8 |
| 20260507092016 | 62 | 152 | 4.3 | 10.4 | 0.00 | 0.00 | 0.00 | 73 | 1014.8 |
| 20260507091016 | 61 | 144 | 2.6 | 7.0 | 0.00 | 0.00 | 0.00 | 72 | 1014.8 |
| 20260507090015 | 62 | 81 | 0.9 | 3.5 | 0.00 | 0.00 | 0.00 | 72 | 1014.8 |
| 20260507085016 | 62 | 111 | 2.6 | 5.2 | 0.00 | 0.00 | 0.00 | 72 | 1014.9 |
| 20260507083016 | 61 | 115 | 4.3 | 8.7 | 0.00 | 0.00 | 0.00 | 72 | 1014.6 |
| 20260507082016 | 60 | 100 | 3.5 | 8.7 | 0.00 | 0.00 | 0.00 | 75 | 1014.5 |
| 20260507081016 | 60 | 76 | 3.5 | 8.7 | 0.00 | 0.00 | 0.00 | 76 | 1014.4 |
| 20260507080017 | 60 | 106 | 3.5 | 7.8 | 0.00 | 0.00 | 0.00 | 77 | 1014.6 |
| 20260507075016 | 59 | 79 | 2.6 | 7.0 | 0.00 | 0.00 | 0.00 | 79 | 1014.7 |
| 20260507074015 | 58 | 100 | 4.3 | 7.8 | 0.00 | 0.00 | 0.00 | 78 | 1014.7 |
| 20260507073016 | 59 | 87 | 5.2 | 7.8 | 0.00 | 0.00 | 0.00 | 77 | 1014.9 |
| 20260507072016 | 59 | 97 | 3.5 | 7.8 | 0.00 | 0.00 | 0.00 | 76 | 1014.9 |
| 20260507071019 | 59 | 101 | 3.5 | 7.8 | 0.00 | 0.00 | 0.00 | 76 | 1014.8 |
| 20260507070018 | 59 | 116 | 2.6 | 7.8 | 0.00 | 0.00 | 0.00 | 76 | 1014.8 |
| 20260507065016 | 58 | 104 | 3.5 | 7.0 | 0.00 | 0.00 | 0.00 | 75 | 1014.8 |
| 20260507064016 | 59 | 111 | 3.5 | 7.0 | 0.00 | 0.00 | 0.00 | 73 | 1014.6 |
| 20260507063016 | 60 | 104 | 2.6 | 6.1 | 0.00 | 0.00 | 0.00 | 73 | 1014.4 |
| 20260507062016 | 59 | 72 | 1.7 | 5.2 | 0.00 | 0.00 | 0.00 | 72 | 1014.4 |
| 20260507061017 | 58 | 350 | 0.0 | 1.7 | 0.00 | 0.00 | 0.00 | 77 | 1014.2 |
| 20260507060021 | 56 | 350 | 0.0 | 0.9 | 0.00 | 0.00 | 0.00 | 79 | 1014.0 |
| 20260507055022 | 55 | 350 | 1.7 | 2.6 | 0.00 | 0.00 | 0.00 | 80 | 1014.0 |
| 20260507054017 | 54 | 349 | 1.7 | 2.6 | 0.00 | 0.00 | 0.00 | 80 | 1013.7 |
| 20260507053016 | 53 | 349 | 1.7 | 3.5 | 0.00 | 0.00 | 0.00 | 80 | 1013.8 |
| 20260507052017 | 53 | 349 | 2.6 | 4.3 | 0.00 | 0.00 | 0.00 | 80 | 1013.6 |
| 20260507051015 | 52 | 349 | 2.6 | 3.5 | 0.00 | 0.00 | 0.00 | 81 | 1013.6 |
| 20260507050019 | 52 | 349 | 2.6 | 3.5 | 0.00 | 0.00 | 0.00 | 81 | 1013.7 |
| 20260507045016 | 52 | 349 | 2.6 | 3.5 | 0.00 | 0.00 | 0.00 | 82 | 1013.5 |
| 20260507043017 | 52 | 349 | 2.6 | 4.3 | 0.00 | 0.00 | 0.00 | 83 | 1013.6 |
| 20260507041016 | 52 | 349 | 3.5 | 4.3 | 0.00 | 0.00 | 0.00 | 83 | 1013.7 |
| 20260507040023 | 53 | 349 | 2.6 | 3.5 | 0.00 | 0.00 | 0.00 | 84 | 1013.7 |
| 20260507034017 | 53 | 350 | 3.5 | 4.3 | 0.00 | 0.00 | 0.00 | 83 | 1013.6 |
| 20260507033016 | 53 | 350 | 2.6 | 4.3 | 0.00 | 0.00 | 0.00 | 83 | 1013.6 |
| 20260507031016 | 52 | 350 | 2.6 | 3.5 | 0.00 | 0.00 | 0.00 | 83 | 1013.5 |